{"data":{"norad_id":66936,"intl_designator":"2025-286M","name":"STARLINK-36160","alt_names":[],"object_type":"PAYLOAD","status":"ACTIVE","operator":null,"country":"US","launch_date":"2025-12-07","launch_site_code":"AFWTR","launch_vehicle":null,"mission":null,"orbit_class":"UNKNOWN","rcs_meters":null,"size_class":null,"mass_kg":null,"dimensions":null,"purposes":["comms"],"wikipedia_slug":null,"has_3d_model":false,"image_url":null,"decayed_at":null,"tle_current":{"epoch":"2026-05-24T23:31:36.018336Z","epoch_age_seconds":66944,"freshness":"FRESH","line1":"1 66936U 25286M   26144.98027799  .00026340  00000+0  78766-3 0  9992","line2":"2 66936  53.1597   3.6330 0000453 124.2752 235.8293 15.34412172 27092","mean_motion":15.34412172,"eccentricity":4.53e-5,"inclination_deg":53.1597,"raan_deg":3.633,"arg_perigee_deg":124.2752,"mean_anomaly_deg":235.8293,"bstar":0.00078766,"rev_number":2709,"period_min":93.847013617147,"perigee_km":462.35717427309,"apogee_km":462.97695112117,"semimajor_km":6840.8040626971,"source":"CELESTRAK","updated_at":"2026-05-25T13:38:21.387181Z"}}}